| time (UTC) | temp F | wind direction | speed MPH | gust MPH | rain 1hr in | rain 24hr in | rain mn in | humidity % | barometer mb |
| 20260902004032 | 0 | 0.0 | 0.0 | 0.00 | 0.00 | 0.00 | |||
| 20260902003958 | 60 | 114 | 4.0 | 6.0 | 0.00 | 0.00 | 0.00 | 72 | 1008.3 |
| 20260902003531 | 0 | 0.0 | 0.0 | 0.00 | 0.00 | 0.00 | |||
| 20260902003457 | 60 | 113 | 5.0 | 6.0 | 0.00 | 0.00 | 0.00 | 73 | 1008.4 |
| 20260902003032 | 0 | 0.0 | 0.0 | 0.00 | 0.00 | 0.00 | |||
| 20260902002957 | 60 | 111 | 5.0 | 7.0 | 0.00 | 0.00 | 0.00 | 72 | 1008.4 |
| 20260902002532 | 0 | 0.0 | 0.0 | 0.00 | 0.00 | 0.00 | |||
| 20260902002457 | 60 | 106 | 6.0 | 7.0 | 0.00 | 0.00 | 0.00 | 72 | 1008.4 |
| 20260902002032 | 0 | 0.0 | 0.0 | 0.00 | 0.00 | 0.00 | |||
| 20260902001957 | 61 | 115 | 4.0 | 5.0 | 0.00 | 0.00 | 0.00 | 72 | 1008.4 |
| 20260902001537 | 0 | 0.0 | 0.0 | 0.00 | 0.00 | 0.00 | |||
| 20260902001457 | 61 | 114 | 5.0 | 6.0 | 0.00 | 0.00 | 0.00 | 72 | 1008.4 |
| 20260902001029 | 0 | 0.0 | 0.0 | 0.00 | 0.00 | 0.00 | |||
| 20260902000957 | 61 | 116 | 4.0 | 6.0 | 0.00 | 0.00 | 0.00 | 72 | 1008.4 |
| 20260902000534 | 0 | 0.0 | 0.0 | 0.00 | 0.00 | 0.00 | |||
| 20260902000459 | 61 | 121 | 4.0 | 6.0 | 0.00 | 0.00 | 0.00 | 72 | 1008.3 |
| 20260902000032 | 0 | 0.0 | 0.0 | 0.00 | 0.00 | 0.00 | |||
| 20260901235957 | 61 | 111 | 6.0 | 7.0 | 0.00 | 0.00 | 0.00 | 72 | 1008.3 |
| 20260901235458 | 61 | 108 | 5.0 | 7.0 | 0.00 | 0.00 | 0.00 | 72 | 1008.4 |
| 20260901234957 | 61 | 116 | 5.0 | 6.0 | 0.00 | 0.00 | 0.00 | 72 | 1008.3 |
| 20260901234457 | 61 | 104 | 5.0 | 6.0 | 0.00 | 0.00 | 0.00 | 73 | 1008.3 |
| 20260901233958 | 61 | 116 | 5.0 | 6.0 | 0.00 | 0.00 | 0.00 | 72 | 1008.4 |
| 20260901233530 | 0 | 0.0 | 0.0 | 0.00 | 0.00 | 0.00 | |||
| 20260901233457 | 61 | 111 | 5.0 | 7.0 | 0.00 | 0.00 | 0.00 | 73 | 1008.3 |
| 20260901232957 | 61 | 112 | 6.0 | 8.0 | 0.00 | 0.00 | 0.00 | 72 | 1008.3 |
| 20260901232530 | 0 | 0.0 | 0.0 | 0.00 | 0.00 | 0.00 | |||
| 20260901232508 | 62 | 132 | 4.0 | 6.0 | 0.00 | 0.00 | 0.00 | 72 | 1008.3 |
| 20260901232027 | 0 | 0.0 | 0.0 | 0.00 | 0.00 | 0.00 | |||
| 20260901231957 | 62 | 132 | 5.0 | 6.0 | 0.00 | 0.00 | 0.00 | 72 | 1008.3 |
| 20260901231527 | 0 | 0.0 | 0.0 | 0.00 | 0.00 | 0.00 | |||
| 20260901231458 | 62 | 123 | 5.0 | 9.0 | 0.00 | 0.00 | 0.00 | 72 | 1008.3 |
| 20260901231028 | 0 | 0.0 | 0.0 | 0.00 | 0.00 | 0.00 | |||
| 20260901230957 | 62 | 131 | 5.0 | 7.0 | 0.00 | 0.00 | 0.00 | 71 | 1008.3 |
| 20260901230528 | 0 | 0.0 | 0.0 | 0.00 | 0.00 | 0.00 | |||
| 20260901230458 | 62 | 121 | 6.0 | 9.0 | 0.00 | 0.00 | 0.00 | 71 | 1008.2 |
| 20260901230027 | 0 | 0.0 | 0.0 | 0.00 | 0.00 | 0.00 | |||
| 20260901225958 | 62 | 131 | 4.0 | 6.0 | 0.00 | 0.00 | 0.00 | 71 | 1008.1 |
| 20260901225527 | 0 | 0.0 | 0.0 | 0.00 | 0.00 | 0.00 | |||
| 20260901225457 | 62 | 113 | 5.0 | 8.0 | 0.00 | 0.00 | 0.00 | 72 | 1008.1 |
| 20260901224958 | 61 | 118 | 6.0 | 9.0 | 0.00 | 0.00 | 0.00 | 72 | 1008.1 |
| 20260901224457 | 61 | 109 | 6.0 | 9.0 | 0.00 | 0.00 | 0.00 | 73 | 1008.2 |
| 20260901223957 | 62 | 115 | 6.0 | 7.0 | 0.00 | 0.00 | 0.00 | 73 | 1008.2 |
| 20260901223527 | 0 | 0.0 | 0.0 | 0.00 | 0.00 | 0.00 | |||
| 20260901223458 | 62 | 132 | 4.0 | 6.0 | 0.00 | 0.00 | 0.00 | 72 | 1008.2 |
| 20260901223028 | 0 | 0.0 | 0.0 | 0.00 | 0.00 | 0.00 | |||
| 20260901222957 | 62 | 135 | 6.0 | 9.0 | 0.00 | 0.00 | 0.00 | 71 | 1008.2 |
| 20260901222526 | 0 | 0.0 | 0.0 | 0.00 | 0.00 | 0.00 | |||
| 20260901222457 | 63 | 121 | 7.0 | 9.0 | 0.00 | 0.00 | 0.00 | 68 | 1008.2 |
| 20260901222024 | 0 | 0.0 | 0.0 | 0.00 | 0.00 | 0.00 | |||
| 20260901221957 | 63 | 151 | 4.0 | 5.0 | 0.00 | 0.00 | 0.00 | 69 | 1008.1 |
| 20260901221459 | 63 | 145 | 6.0 | 11.0 | 0.00 | 0.00 | 0.00 | 69 | 1008.1 |
| 20260901221020 | 0 | 0.0 | 0.0 | 0.00 | 0.00 | 0.00 | |||
| 20260901221000 | 63 | 150 | 6.0 | 8.0 | 0.00 | 0.00 | 0.00 | 67 | 1008.2 |
| 20260901220521 | 0 | 0.0 | 0.0 | 0.00 | 0.00 | 0.00 | |||
| 20260901220458 | 63 | 149 | 4.0 | 7.0 | 0.00 | 0.00 | 0.00 | 69 | 1008.2 |
| 20260901215957 | 62 | 142 | 4.0 | 6.0 | 0.00 | 0.00 | 0.00 | 69 | 1008.3 |
| 20260901215457 | 62 | 131 | 4.0 | 6.0 | 0.00 | 0.00 | 0.00 | 70 | 1008.2 |
| 20260901215021 | 0 | 0.0 | 0.0 | 0.00 | 0.00 | 0.00 | |||
| 20260901214957 | 62 | 144 | 5.0 | 10.0 | 0.00 | 0.00 | 0.00 | 71 | 1008.3 |
| 20260901214521 | 0 | 0.0 | 0.0 | 0.00 | 0.00 | 0.00 | |||
| 20260901214458 | 62 | 127 | 4.0 | 7.0 | 0.00 | 0.00 | 0.00 | 72 | 1008.4 |
| 20260901214021 | 0 | 0.0 | 0.0 | 0.00 | 0.00 | 0.00 | |||
| 20260901213957 | 62 | 112 | 6.0 | 9.0 | 0.00 | 0.00 | 0.00 | 71 | 1008.4 |
| 20260901213523 | 0 | 0.0 | 0.0 | 0.00 | 0.00 | 0.00 | |||
| 20260901213457 | 62 | 108 | 5.0 | 8.0 | 0.00 | 0.00 | 0.00 | 72 | 1008.4 |
| 20260901212958 | 62 | 125 | 4.0 | 7.0 | 0.00 | 0.00 | 0.00 | 72 | 1008.5 |
| 20260901212458 | 61 | 120 | 5.0 | 7.0 | 0.00 | 0.00 | 0.00 | 73 | 1008.5 |
| 20260901212021 | 0 | 0.0 | 0.0 | 0.00 | 0.00 | 0.00 | |||
| 20260901211957 | 61 | 109 | 6.0 | 9.0 | 0.00 | 0.00 | 0.00 | 73 | 1008.5 |
| 20260901211457 | 61 | 114 | 6.0 | 8.0 | 0.00 | 0.00 | 0.00 | 72 | 1008.6 |
| 20260901211019 | 0 | 0.0 | 0.0 | 0.00 | 0.00 | 0.00 | |||
| 20260901210957 | 61 | 116 | 6.0 | 9.0 | 0.00 | 0.00 | 0.00 | 74 | 1008.6 |
| 20260901210518 | 0 | 0.0 | 0.0 | 0.00 | 0.00 | 0.00 | |||
| 20260901210458 | 61 | 120 | 6.0 | 9.0 | 0.00 | 0.00 | 0.00 | 74 | 1008.6 |
| 20260901210019 | 0 | 0.0 | 0.0 | 0.00 | 0.00 | 0.00 | |||
| 20260901205957 | 62 | 114 | 6.0 | 9.0 | 0.00 | 0.00 | 0.00 | 73 | 1008.5 |
| 20260901205519 | 0 | 0.0 | 0.0 | 0.00 | 0.00 | 0.00 | |||
| 20260901205458 | 62 | 107 | 6.0 | 9.0 | 0.00 | 0.00 | 0.00 | 72 | 1008.7 |
| 20260901205019 | 0 | 0.0 | 0.0 | 0.00 | 0.00 | 0.00 | |||
| 20260901204958 | 62 | 110 | 6.0 | 10.0 | 0.00 | 0.00 | 0.00 | 73 | 1008.6 |
| 20260901204520 | 0 | 0.0 | 0.0 | 0.00 | 0.00 | 0.00 | |||
| 20260901204457 | 62 | 136 | 4.0 | 6.0 | 0.00 | 0.00 | 0.00 | 74 | 1008.6 |
| 20260901204019 | 0 | 0.0 | 0.0 | 0.00 | 0.00 | 0.00 | |||
| 20260901203958 | 62 | 126 | 5.0 | 9.0 | 0.00 | 0.00 | 0.00 | 74 | 1008.6 |
| 20260901203520 | 0 | 0.0 | 0.0 | 0.00 | 0.00 | 0.00 | |||
| 20260901203458 | 62 | 132 | 5.0 | 6.0 | 0.00 | 0.00 | 0.00 | 74 | 1008.6 |
| 20260901203019 | 0 | 0.0 | 0.0 | 0.00 | 0.00 | 0.00 | |||
| 20260901202958 | 63 | 125 | 5.0 | 7.0 | 0.00 | 0.00 | 0.00 | 72 | 1008.6 |
| 20260901202518 | 0 | 0.0 | 0.0 | 0.00 | 0.00 | 0.00 | |||
| 20260901202457 | 63 | 139 | 4.0 | 7.0 | 0.00 | 0.00 | 0.00 | 74 | 1008.5 |
| 20260901202017 | 0 | 0.0 | 0.0 | 0.00 | 0.00 | 0.00 | |||
| 20260901201957 | 63 | 133 | 4.0 | 6.0 | 0.00 | 0.00 | 0.00 | 75 | 1008.6 |
| 20260901201457 | 63 | 120 | 5.0 | 8.0 | 0.00 | 0.00 | 0.00 | 74 | 1008.5 |
| 20260901201017 | 0 | 0.0 | 0.0 | 0.00 | 0.00 | 0.00 | |||
| 20260901200957 | 63 | 123 | 5.0 | 9.0 | 0.00 | 0.00 | 0.00 | 75 | 1008.5 |
| 20260901200519 | 0 | 0.0 | 0.0 | 0.00 | 0.00 | 0.00 | |||
| 20260901200457 | 63 | 108 | 5.0 | 7.0 | 0.00 | 0.00 | 0.00 | 74 | 1008.4 |
| 20260901200017 | 0 | 0.0 | 0.0 | 0.00 | 0.00 | 0.00 | |||
| 20260901195958 | 62 | 112 | 4.0 | 6.0 | 0.00 | 0.00 | 0.00 | 75 | 1008.5 |
| 20260901195517 | 0 | 0.0 | 0.0 | 0.00 | 0.00 | 0.00 | |||
| 20260901195500 | 62 | 136 | 3.0 | 5.0 | 0.00 | 0.00 | 0.00 | 77 | 1008.5 |
| 20260901195017 | 0 | 0.0 | 0.0 | 0.00 | 0.00 | 0.00 | |||
| 20260901194957 | 62 | 115 | 5.0 | 7.0 | 0.00 | 0.00 | 0.00 | 75 | 1008.6 |
| 20260901194517 | 0 | 0.0 | 0.0 | 0.00 | 0.00 | 0.00 | |||
| 20260901194458 | 63 | 99 | 7.0 | 10.0 | 0.00 | 0.00 | 0.00 | 73 | 1008.5 |
| 20260901194018 | 0 | 0.0 | 0.0 | 0.00 | 0.00 | 0.00 | |||
| 20260901193958 | 63 | 112 | 5.0 | 7.0 | 0.00 | 0.00 | 0.00 | 73 | 1008.5 |
| 20260901193517 | 0 | 0.0 | 0.0 | 0.00 | 0.00 | 0.00 | |||
| 20260901193459 | 64 | 167 | 6.0 | 8.0 | 0.00 | 0.00 | 0.00 | 73 | 1008.4 |
| 20260901193017 | 0 | 0.0 | 0.0 | 0.00 | 0.00 | 0.00 | |||
| 20260901192958 | 64 | 142 | 3.0 | 6.0 | 0.00 | 0.00 | 0.00 | 73 | 1008.5 |
| 20260901192459 | 64 | 152 | 5.0 | 7.0 | 0.00 | 0.00 | 0.00 | 73 | 1008.4 |
| 20260901192014 | 0 | 0.0 | 0.0 | 0.00 | 0.00 | 0.00 | |||
| 20260901191958 | 63 | 129 | 4.0 | 8.0 | 0.00 | 0.00 | 0.00 | 73 | 1008.5 |
| 20260901191512 | 0 | 0.0 | 0.0 | 0.00 | 0.00 | 0.00 | |||
| 20260901191459 | 63 | 138 | 6.0 | 9.0 | 0.00 | 0.00 | 0.00 | 73 | 1008.6 |
| 20260901191012 | 0 | 0.0 | 0.0 | 0.00 | 0.00 | 0.00 | |||
| 20260901190958 | 63 | 132 | 5.0 | 6.0 | 0.00 | 0.00 | 0.00 | 73 | 1008.6 |
| 20260901190512 | 0 | 0.0 | 0.0 | 0.00 | 0.00 | 0.00 | |||
| 20260901190457 | 62 | 169 | 7.0 | 9.0 | 0.00 | 0.00 | 0.00 | 76 | 1008.6 |
| 20260901185957 | 61 | 166 | 4.0 | 6.0 | 0.00 | 0.00 | 0.00 | 78 | 1008.6 |
| 20260901185513 | 0 | 0.0 | 0.0 | 0.00 | 0.00 | 0.00 | |||
| 20260901185457 | 61 | 155 | 5.0 | 7.0 | 0.00 | 0.00 | 0.00 | 77 | 1008.6 |
| 20260901185012 | 0 | 0.0 | 0.0 | 0.00 | 0.00 | 0.00 | |||
| 20260901184958 | 61 | 149 | 6.0 | 9.0 | 0.00 | 0.00 | 0.00 | 77 | 1008.6 |
| 20260901184512 | 0 | 0.0 | 0.0 | 0.00 | 0.00 | 0.00 | |||
| 20260901184458 | 61 | 164 | 7.0 | 10.0 | 0.00 | 0.00 | 0.00 | 77 | 1008.5 |
| 20260901184012 | 0 | 0.0 | 0.0 | 0.00 | 0.00 | 0.00 | |||
| 20260901183957 | 62 | 153 | 5.0 | 9.0 | 0.00 | 0.00 | 0.00 | 78 | 1008.6 |
| 20260901183512 | 0 | 0.0 | 0.0 | 0.00 | 0.00 | 0.00 | |||
| 20260901183457 | 63 | 153 | 6.0 | 9.0 | 0.00 | 0.00 | 0.00 | 70 | 1008.4 |
| 20260901183013 | 0 | 0.0 | 0.0 | 0.00 | 0.00 | 0.00 | |||
| 20260901182957 | 63 | 168 | 5.0 | 9.0 | 0.00 | 0.00 | 0.00 | 70 | 1008.4 |
| 20260901182512 | 0 | 0.0 | 0.0 | 0.00 | 0.00 | 0.00 | |||
| 20260901182458 | 63 | 127 | 3.0 | 5.0 | 0.00 | 0.00 | 0.00 | 70 | 1008.3 |
| 20260901182010 | 0 | 0.0 | 0.0 | 0.00 | 0.00 | 0.00 | |||
| 20260901181957 | 62 | 124 | 4.0 | 5.0 | 0.00 | 0.00 | 0.00 | 71 | 1008.3 |
| 20260901181457 | 62 | 148 | 4.0 | 6.0 | 0.00 | 0.00 | 0.00 | 74 | 1008.6 |
| 20260901181010 | 0 | 0.0 | 0.0 | 0.00 | 0.00 | 0.00 | |||
| 20260901180957 | 62 | 153 | 6.0 | 8.0 | 0.00 | 0.00 | 0.00 | 72 | 1008.6 |
| 20260901180520 | 62 | 121 | 4.0 | 6.0 | 0.00 | 0.00 | 0.00 | 73 | 1008.6 |
| 20260901180510 | 0 | 0.0 | 0.0 | 0.00 | 0.00 | 0.00 | |||
| 20260901180010 | 0 | 0.0 | 0.0 | 0.00 | 0.00 | 0.00 | |||
| 20260901175957 | 62 | 124 | 4.0 | 6.0 | 0.00 | 0.00 | 0.00 | 73 | 1008.6 |
| 20260901175510 | 0 | 0.0 | 0.0 | 0.00 | 0.00 | 0.00 | |||
| 20260901175457 | 61 | 141 | 4.0 | 5.0 | 0.00 | 0.00 | 0.00 | 75 | 1008.6 |
| 20260901175009 | 0 | 0.0 | 0.0 | 0.00 | 0.00 | 0.00 | |||
| 20260901174957 | 61 | 141 | 4.0 | 6.0 | 0.00 | 0.00 | 0.00 | 74 | 1008.6 |
| 20260901174510 | 0 | 0.0 | 0.0 | 0.00 | 0.00 | 0.00 | |||
| 20260901174458 | 60 | 121 | 4.0 | 6.0 | 0.00 | 0.00 | 0.00 | 75 | 1008.6 |
| 20260901174009 | 0 | 0.0 | 0.0 | 0.00 | 0.00 | 0.00 | |||
| 20260901173957 | 60 | 123 | 4.0 | 6.0 | 0.00 | 0.00 | 0.00 | 75 | 1008.7 |
| 20260901173510 | 0 | 0.0 | 0.0 | 0.00 | 0.00 | 0.00 | |||
| 20260901173457 | 60 | 129 | 4.0 | 5.0 | 0.00 | 0.00 | 0.00 | 75 | 1008.7 |
| 20260901173010 | 0 | 0.0 | 0.0 | 0.00 | 0.00 | 0.00 | |||
| 20260901172957 | 60 | 116 | 4.0 | 6.0 | 0.00 | 0.00 | 0.00 | 75 | 1008.7 |
| 20260901172508 | 0 | 0.0 | 0.0 | 0.00 | 0.00 | 0.00 | |||
| 20260901172457 | 60 | 120 | 4.0 | 5.0 | 0.00 | 0.00 | 0.00 | 76 | 1008.8 |
| 20260901172008 | 0 | 0.0 | 0.0 | 0.00 | 0.00 | 0.00 | |||
| 20260901171957 | 59 | 117 | 5.0 | 6.0 | 0.00 | 0.00 | 0.00 | 76 | 1008.7 |
| 20260901171507 | 0 | 0.0 | 0.0 | 0.00 | 0.00 | 0.00 | |||
| 20260901171457 | 59 | 124 | 4.0 | 5.0 | 0.00 | 0.00 | 0.00 | 76 | 1008.7 |
| 20260901171008 | 0 | 0.0 | 0.0 | 0.00 | 0.00 | 0.00 | |||
| 20260901170958 | 59 | 115 | 4.0 | 5.0 | 0.00 | 0.00 | 0.00 | 76 | 1008.7 |
| 20260901170508 | 0 | 0.0 | 0.0 | 0.00 | 0.00 | 0.00 | |||
| 20260901170457 | 59 | 125 | 4.0 | 6.0 | 0.00 | 0.00 | 0.00 | 77 | 1008.7 |
| 20260901165957 | 59 | 117 | 4.0 | 6.0 | 0.00 | 0.00 | 0.00 | 77 | 1008.8 |
| 20260901165458 | 58 | 114 | 5.0 | 6.0 | 0.00 | 0.00 | 0.00 | 78 | 1008.8 |
| 20260901165008 | 0 | 0.0 | 0.0 | 0.00 | 0.00 | 0.00 | |||
| 20260901164959 | 58 | 119 | 5.0 | 6.0 | 0.00 | 0.00 | 0.00 | 79 | 1008.8 |
| 20260901164508 | 0 | 0.0 | 0.0 | 0.00 | 0.00 | 0.00 | |||
| 20260901164457 | 58 | 131 | 4.0 | 4.0 | 0.00 | 0.00 | 0.00 | 80 | 1008.8 |
| 20260901164008 | 0 | 0.0 | 0.0 | 0.00 | 0.00 | 0.00 | |||
| 20260901163959 | 58 | 125 | 4.0 | 5.0 | 0.00 | 0.00 | 0.00 | 80 | 1008.8 |
| 20260901163509 | 0 | 0.0 | 0.0 | 0.00 | 0.00 | 0.00 | |||
| 20260901163457 | 58 | 124 | 4.0 | 5.0 | 0.00 | 0.00 | 0.00 | 81 | 1008.8 |
| 20260901162958 | 58 | 116 | 4.0 | 5.0 | 0.00 | 0.00 | 0.00 | 82 | 1008.8 |
| 20260901162508 | 0 | 0.0 | 0.0 | 0.00 | 0.00 | 0.00 | |||
| 20260901162457 | 58 | 122 | 4.0 | 6.0 | 0.00 | 0.00 | 0.00 | 81 | 1008.8 |
| 20260901162008 | 0 | 0.0 | 0.0 | 0.00 | 0.00 | 0.00 | |||
| 20260901161957 | 58 | 132 | 4.0 | 4.0 | 0.00 | 0.00 | 0.00 | 81 | 1008.9 |
| 20260901161505 | 0 | 0.0 | 0.0 | 0.00 | 0.00 | 0.00 | |||
| 20260901161458 | 58 | 108 | 5.0 | 6.0 | 0.00 | 0.00 | 0.00 | 81 | 1008.9 |
| 20260901161005 | 0 | 0.0 | 0.0 | 0.00 | 0.00 | 0.00 | |||
| 20260901160958 | 58 | 112 | 5.0 | 5.0 | 0.00 | 0.00 | 0.00 | 80 | 1008.9 |
| 20260901160506 | 0 | 0.0 | 0.0 | 0.00 | 0.00 | 0.00 | |||
| 20260901160457 | 58 | 126 | 4.0 | 4.0 | 0.00 | 0.00 | 0.00 | 78 | 1008.9 |
| 20260901160006 | 0 | 0.0 | 0.0 | 0.00 | 0.00 | 0.00 | |||
| 20260901155958 | 58 | 128 | 3.0 | 4.0 | 0.00 | 0.00 | 0.00 | 78 | 1008.9 |
| 20260901155506 | 0 | 0.0 | 0.0 | 0.00 | 0.00 | 0.00 | |||
| 20260901155457 | 58 | 130 | 3.0 | 5.0 | 0.00 | 0.00 | 0.00 | 78 | 1008.9 |
| 20260901155007 | 0 | 0.0 | 0.0 | 0.00 | 0.00 | 0.00 | |||
| 20260901154958 | 59 | 124 | 4.0 | 5.0 | 0.00 | 0.00 | 0.00 | 78 | 1008.9 |
| 20260901154506 | 0 | 0.0 | 0.0 | 0.00 | 0.00 | 0.00 | |||
| 20260901154457 | 59 | 113 | 4.0 | 6.0 | 0.00 | 0.00 | 0.00 | 77 | 1008.9 |
| 20260901154006 | 0 | 0.0 | 0.0 | 0.00 | 0.00 | 0.00 | |||
| 20260901153957 | 60 | 123 | 3.0 | 4.0 | 0.00 | 0.00 | 0.00 | 74 | 1008.9 |
| 20260901153506 | 0 | 0.0 | 0.0 | 0.00 | 0.00 | 0.00 | |||
| 20260901153457 | 61 | 129 | 2.0 | 3.0 | 0.00 | 0.00 | 0.00 | 72 | 1008.8 |
| 20260901153006 | 0 | 0.0 | 0.0 | 0.00 | 0.00 | 0.00 | |||
| 20260901152957 | 60 | 100 | 5.0 | 6.0 | 0.00 | 0.00 | 0.00 | 73 | 1008.8 |
| 20260901152506 | 0 | 0.0 | 0.0 | 0.00 | 0.00 | 0.00 | |||
| 20260901152457 | 60 | 103 | 4.0 | 6.0 | 0.00 | 0.00 | 0.00 | 73 | 1008.7 |
| 20260901152006 | 0 | 0.0 | 0.0 | 0.00 | 0.00 | 0.00 | |||
| 20260901151957 | 60 | 110 | 4.0 | 6.0 | 0.00 | 0.00 | 0.00 | 73 | 1008.7 |
| 20260901151504 | 0 | 0.0 | 0.0 | 0.00 | 0.00 | 0.00 | |||
| 20260901151457 | 60 | 110 | 4.0 | 5.0 | 0.00 | 0.00 | 0.00 | 73 | 1008.7 |
| 20260901151001 | 60 | 114 | 4.0 | 4.0 | 0.00 | 0.00 | 0.00 | 74 | 1008.7 |
| 20260901150501 | 0 | 0.0 | 0.0 | 0.00 | 0.00 | 0.00 | |||
| 20260901150459 | 60 | 119 | 3.0 | 4.0 | 0.00 | 0.00 | 0.00 | 73 | 1008.7 |
| 20260901150001 | 0 | 0.0 | 0.0 | 0.00 | 0.00 | 0.00 | |||
| 20260901145959 | 60 | 118 | 3.0 | 4.0 | 0.00 | 0.00 | 0.00 | 73 | 1008.7 |
| 20260901145501 | 0 | 0.0 | 0.0 | 0.00 | 0.00 | 0.00 | |||
| 20260901145457 | 60 | 110 | 4.0 | 5.0 | 0.00 | 0.00 | 0.00 | 73 | 1008.7 |
| 20260901145001 | 0 | 0.0 | 0.0 | 0.00 | 0.00 | 0.00 | |||
| 20260901144957 | 60 | 107 | 4.0 | 4.0 | 0.00 | 0.00 | 0.00 | 73 | 1008.6 |
| 20260901144501 | 0 | 0.0 | 0.0 | 0.00 | 0.00 | 0.00 | |||
| 20260901144458 | 60 | 117 | 3.0 | 4.0 | 0.00 | 0.00 | 0.00 | 73 | 1008.5 |
| 20260901144001 | 0 | 0.0 | 0.0 | 0.00 | 0.00 | 0.00 | |||
| 20260901143959 | 60 | 104 | 4.0 | 6.0 | 0.00 | 0.00 | 0.00 | 73 | 1008.5 |
| 20260901143501 | 0 | 0.0 | 0.0 | 0.00 | 0.00 | 0.00 | |||
| 20260901143458 | 59 | 103 | 4.0 | 5.0 | 0.00 | 0.00 | 0.00 | 73 | 1008.5 |
| 20260901143001 | 0 | 0.0 | 0.0 | 0.00 | 0.00 | 0.00 | |||
| 20260901142958 | 59 | 106 | 4.0 | 5.0 | 0.00 | 0.00 | 0.00 | 73 | 1008.5 |
| 20260901142501 | 0 | 0.0 | 0.0 | 0.00 | 0.00 | 0.00 | |||
| 20260901142457 | 59 | 99 | 4.0 | 6.0 | 0.00 | 0.00 | 0.00 | 72 | 1008.5 |
| 20260901141957 | 59 | 97 | 4.0 | 5.0 | 0.00 | 0.00 | 0.00 | 72 | 1008.5 |
| 20260901141459 | 59 | 91 | 4.0 | 5.0 | 0.00 | 0.00 | 0.00 | 72 | 1008.5 |
| 20260901140958 | 0 | 0.0 | 0.0 | 0.00 | 0.00 | 0.00 | |||
| 20260901140458 | 59 | 102 | 4.0 | 6.0 | 0.00 | 0.00 | 0.00 | 72 | 1008.5 |
| 20260901135958 | 0 | 0.0 | 0.0 | 0.00 | 0.00 | 0.00 | |||
| 20260901135459 | 0 | 0.0 | 0.0 | 0.00 | 0.00 | 0.00 | |||
| 20260901135457 | 59 | 103 | 3.0 | 4.0 | 0.00 | 0.00 | 0.00 | 72 | 1008.4 |
| 20260901134958 | 0 | 0.0 | 0.0 | 0.00 | 0.00 | 0.00 | |||
| 20260901134500 | 58 | 59 | 2.0 | 3.0 | 0.00 | 0.00 | 0.00 | 73 | 1008.3 |
| 20260901134459 | 0 | 0.0 | 0.0 | 0.00 | 0.00 | 0.00 | |||
| 20260901133958 | 59 | 65 | 2.0 | 4.0 | 0.00 | 0.00 | 0.00 | 72 | 1008.3 |
| 20260901133458 | 59 | 72 | 3.0 | 4.0 | 0.00 | 0.00 | 0.00 | 72 | 1008.3 |
| 20260901132959 | 0 | 0.0 | 0.0 | 0.00 | 0.00 | 0.00 | |||
| 20260901132459 | 0 | 0.0 | 0.0 | 0.00 | 0.00 | 0.00 | |||
| 20260901132457 | 59 | 89 | 3.0 | 4.0 | 0.00 | 0.00 | 0.00 | 72 | 1008.3 |
| 20260901132000 | 0 | 0.0 | 0.0 | 0.00 | 0.00 | 0.00 | |||
| 20260901131959 | 59 | 88 | 3.0 | 4.0 | 0.00 | 0.00 | 0.00 | 73 | 1008.2 |
| 20260901131457 | 59 | 84 | 3.0 | 4.0 | 0.00 | 0.00 | 0.00 | 73 | 1008.1 |
| 20260901130957 | 0 | 0.0 | 0.0 | 0.00 | 0.00 | 0.00 | |||
| 20260901130458 | 59 | 68 | 2.0 | 3.0 | 0.00 | 0.00 | 0.00 | 72 | 1008.1 |
| 20260901130456 | 0 | 0.0 | 0.0 | 0.00 | 0.00 | 0.00 | |||
| 20260901125958 | 59 | 86 | 3.0 | 4.0 | 0.00 | 0.00 | 0.00 | 72 | 1008.1 |
| 20260901125457 | 0 | 0.0 | 0.0 | 0.00 | 0.00 | 0.00 | |||
| 20260901125002 | 0 | 0.0 | 0.0 | 0.00 | 0.00 | 0.00 | |||
| 20260901124958 | 59 | 48 | 2.0 | 3.0 | 0.00 | 0.00 | 0.00 | 74 | 1008.1 |
| 20260901124457 | 59 | 48 | 2.0 | 3.0 | 0.00 | 0.00 | 0.00 | 74 | 1008.2 |
| 20260901123957 | 0 | 0.0 | 0.0 | 0.00 | 0.00 | 0.00 | |||
| 20260901123457 | 0 | 0.0 | 0.0 | 0.00 | 0.00 | 0.00 | |||
| 20260901122957 | 0 | 0.0 | 0.0 | 0.00 | 0.00 | 0.00 | |||
| 20260901122458 | 59 | 80 | 2.0 | 3.0 | 0.00 | 0.00 | 0.00 | 73 | 1008.2 |
| 20260901121957 | 59 | 75 | 3.0 | 4.0 | 0.00 | 0.00 | 0.00 | 73 | 1008.2 |
| 20260901121954 | 0 | 0.0 | 0.0 | 0.00 | 0.00 | 0.00 | |||
| 20260901121457 | 59 | 91 | 3.0 | 4.0 | 0.00 | 0.00 | 0.00 | 72 | 1008.3 |
| 20260901121454 | 0 | 0.0 | 0.0 | 0.00 | 0.00 | 0.00 | |||
| 20260901120959 | 59 | 66 | 3.0 | 4.0 | 0.00 | 0.00 | 0.00 | 72 | 1008.2 |
| 20260901120955 | 0 | 0.0 | 0.0 | 0.00 | 0.00 | 0.00 | |||
| 20260901120457 | 59 | 80 | 3.0 | 4.0 | 0.00 | 0.00 | 0.00 | 72 | 1008.2 |
| 20260901115958 | 59 | 67 | 3.0 | 4.0 | 0.00 | 0.00 | 0.00 | 72 | 1008.2 |
| 20260901115954 | 0 | 0.0 | 0.0 | 0.00 | 0.00 | 0.00 | |||
| 20260901115457 | 59 | 64 | 2.0 | 3.0 | 0.00 | 0.00 | 0.00 | 72 | 1008.2 |
| 20260901115455 | 0 | 0.0 | 0.0 | 0.00 | 0.00 | 0.00 | |||
| 20260901114957 | 59 | 75 | 3.0 | 3.0 | 0.00 | 0.00 | 0.00 | 71 | 1008.2 |
| 20260901114457 | 58 | 63 | 3.0 | 4.0 | 0.00 | 0.00 | 0.00 | 73 | 1008.2 |
| 20260901114455 | 0 | 0.0 | 0.0 | 0.00 | 0.00 | 0.00 | |||
| 20260901114001 | 59 | 45 | 2.0 | 3.0 | 0.00 | 0.00 | 0.00 | 73 | 1008.3 |
| 20260901113956 | 0 | 0.0 | 0.0 | 0.00 | 0.00 | 0.00 | |||
| 20260901113458 | 59 | 47 | 1.0 | 3.0 | 0.00 | 0.00 | 0.00 | 73 | 1008.3 |
| 20260901113455 | 0 | 0.0 | 0.0 | 0.00 | 0.00 | 0.00 | |||
| 20260901112957 | 59 | 51 | 1.0 | 3.0 | 0.00 | 0.00 | 0.00 | 73 | 1008.4 |
| 20260901112955 | 0 | 0.0 | 0.0 | 0.00 | 0.00 | 0.00 | |||
| 20260901112458 | 59 | 54 | 1.0 | 2.0 | 0.00 | 0.00 | 0.00 | 73 | 1008.5 |
| 20260901112455 | 0 | 0.0 | 0.0 | 0.00 | 0.00 | 0.00 | |||
| 20260901111958 | 59 | 55 | 2.0 | 4.0 | 0.00 | 0.00 | 0.00 | 73 | 1008.1 |
| 20260901111956 | 0 | 0.0 | 0.0 | 0.00 | 0.00 | 0.00 | |||
| 20260901111459 | 59 | 21 | 1.0 | 2.0 | 0.00 | 0.00 | 0.00 | 73 | 1008.1 |
| 20260901111452 | 0 | 0.0 | 0.0 | 0.00 | 0.00 | 0.00 | |||
| 20260901110957 | 59 | 46 | 1.0 | 2.0 | 0.00 | 0.00 | 0.00 | 73 | 1008.1 |
| 20260901110952 | 0 | 0.0 | 0.0 | 0.00 | 0.00 | 0.00 | |||
| 20260901110457 | 59 | 30 | 2.0 | 2.0 | 0.00 | 0.00 | 0.00 | 72 | 1008.1 |
| 20260901110453 | 0 | 0.0 | 0.0 | 0.00 | 0.00 | 0.00 | |||
| 20260901105957 | 59 | 40 | 1.0 | 2.0 | 0.00 | 0.00 | 0.00 | 72 | 1008.1 |
| 20260901105457 | 59 | 13 | 2.0 | 2.0 | 0.00 | 0.00 | 0.00 | 72 | 1008.1 |
| 20260901105452 | 0 | 0.0 | 0.0 | 0.00 | 0.00 | 0.00 | |||
| 20260901104957 | 59 | 49 | 2.0 | 2.0 | 0.00 | 0.00 | 0.00 | 72 | 1008.1 |
| 20260901104953 | 0 | 0.0 | 0.0 | 0.00 | 0.00 | 0.00 | |||
| 20260901104500 | 59 | 54 | 2.0 | 3.0 | 0.00 | 0.00 | 0.00 | 72 | 1008.1 |
| 20260901104452 | 0 | 0.0 | 0.0 | 0.00 | 0.00 | 0.00 | |||
| 20260901103957 | 59 | 62 | 2.0 | 3.0 | 0.00 | 0.00 | 0.00 | 72 | 1008.1 |
| 20260901103457 | 59 | 48 | 2.0 | 3.0 | 0.00 | 0.00 | 0.00 | 73 | 1008.1 |
| 20260901103453 | 0 | 0.0 | 0.0 | 0.00 | 0.00 | 0.00 | |||
| 20260901102958 | 59 | 49 | 2.0 | 2.0 | 0.00 | 0.00 | 0.00 | 73 | 1008.1 |
| 20260901102954 | 0 | 0.0 | 0.0 | 0.00 | 0.00 | 0.00 | |||
| 20260901102458 | 59 | 51 | 2.0 | 3.0 | 0.00 | 0.00 | 0.00 | 74 | 1008.1 |
| 20260901102453 | 0 | 0.0 | 0.0 | 0.00 | 0.00 | 0.00 | |||
| 20260901101958 | 59 | 33 | 2.0 | 2.0 | 0.00 | 0.00 | 0.00 | 74 | 1008.1 |
| 20260901101951 | 0 | 0.0 | 0.0 | 0.00 | 0.00 | 0.00 | |||
| 20260901101457 | 59 | 29 | 1.0 | 2.0 | 0.00 | 0.00 | 0.00 | 74 | 1008.2 |
| 20260901101450 | 0 | 0.0 | 0.0 | 0.00 | 0.00 | 0.00 | |||
| 20260901100958 | 59 | 43 | 2.0 | 2.0 | 0.00 | 0.00 | 0.00 | 74 | 1008.1 |
| 20260901100951 | 0 | 0.0 | 0.0 | 0.00 | 0.00 | 0.00 | |||
| 20260901100458 | 59 | 55 | 2.0 | 3.0 | 0.00 | 0.00 | 0.00 | 75 | 1008.1 |
| 20260901100450 | 0 | 0.0 | 0.0 | 0.00 | 0.00 | 0.00 | |||
| 20260901095957 | 59 | 42 | 0.0 | 2.0 | 0.00 | 0.00 | 0.00 | 75 | 1008.1 |
| 20260901095947 | 0 | 0.0 | 0.0 | 0.00 | 0.00 | 0.00 | |||
| 20260901095458 | 59 | 22 | 1.0 | 3.0 | 0.00 | 0.00 | 0.00 | 75 | 1008.1 |
| 20260901095448 | 0 | 0.0 | 0.0 | 0.00 | 0.00 | 0.00 | |||
| 20260901094957 | 59 | 47 | 1.0 | 2.0 | 0.00 | 0.00 | 0.00 | 75 | 1008.2 |
| 20260901094458 | 59 | 48 | 1.0 | 2.0 | 0.00 | 0.00 | 0.00 | 75 | 1008.2 |
| 20260901093957 | 59 | 46 | 1.0 | 2.0 | 0.00 | 0.00 | 0.00 | 75 | 1008.1 |
| 20260901093948 | 0 | 0.0 | 0.0 | 0.00 | 0.00 | 0.00 | |||
| 20260901093457 | 60 | 45 | 1.0 | 3.0 | 0.00 | 0.00 | 0.00 | 74 | 1008.1 |
| 20260901093449 | 0 | 0.0 | 0.0 | 0.00 | 0.00 | 0.00 | |||
| 20260901092958 | 60 | 31 | 1.0 | 2.0 | 0.00 | 0.00 | 0.00 | 74 | 1008.1 |
| 20260901092948 | 0 | 0.0 | 0.0 | 0.00 | 0.00 | 0.00 | |||
| 20260901092458 | 60 | 45 | 1.0 | 2.0 | 0.00 | 0.00 | 0.00 | 73 | 1008.1 |
| 20260901092448 | 0 | 0.0 | 0.0 | 0.00 | 0.00 | 0.00 | |||
| 20260901091958 | 60 | 50 | 1.0 | 2.0 | 0.00 | 0.00 | 0.00 | 73 | 1008.1 |
| 20260901091947 | 0 | 0.0 | 0.0 | 0.00 | 0.00 | 0.00 | |||
| 20260901091459 | 60 | 355 | 0.0 | 1.0 | 0.00 | 0.00 | 0.00 | 73 | 1008.1 |
| 20260901091448 | 0 | 0.0 | 0.0 | 0.00 | 0.00 | 0.00 | |||
| 20260901090957 | 61 | 318 | 1.0 | 2.0 | 0.00 | 0.00 | 0.00 | 72 | 1008.1 |
| 20260901090945 | 0 | 0.0 | 0.0 | 0.00 | 0.00 | 0.00 | |||
| 20260901090457 | 61 | 317 | 1.0 | 2.0 | 0.00 | 0.00 | 0.00 | 72 | 1008.1 |
| 20260901090443 | 0 | 0.0 | 0.0 | 0.00 | 0.00 | 0.00 | |||
| 20260901085957 | 61 | 316 | 2.0 | 3.0 | 0.00 | 0.00 | 0.00 | 71 | 1008.1 |
| 20260901085942 | 0 | 0.0 | 0.0 | 0.00 | 0.00 | 0.00 | |||
| 20260901085458 | 61 | 301 | 2.0 | 4.0 | 0.00 | 0.00 | 0.00 | 71 | 1008.1 |
| 20260901085443 | 0 | 0.0 | 0.0 | 0.00 | 0.00 | 0.00 | |||
| 20260901084958 | 61 | 338 | 1.0 | 4.0 | 0.00 | 0.00 | 0.00 | 71 | 1008.1 |
| 20260901084940 | 0 | 0.0 | 0.0 | 0.00 | 0.00 | 0.00 | |||
| 20260901084457 | 61 | 330 | 3.0 | 5.0 | 0.00 | 0.00 | 0.00 | 72 | 1008.0 |
| 20260901084441 | 0 | 0.0 | 0.0 | 0.00 | 0.00 | 0.00 | |||
| 20260901083957 | 61 | 313 | 1.0 | 3.0 | 0.00 | 0.00 | 0.00 | 72 | 1008.1 |
| 20260901083941 | 0 | 0.0 | 0.0 | 0.00 | 0.00 | 0.00 | |||
| 20260901083457 | 61 | 9 | 1.0 | 2.0 | 0.00 | 0.00 | 0.00 | 71 | 1008.2 |
| 20260901083441 | 0 | 0.0 | 0.0 | 0.00 | 0.00 | 0.00 | |||
| 20260901083000 | 61 | 315 | 2.0 | 4.0 | 0.00 | 0.00 | 0.00 | 71 | 1008.1 |
| 20260901082941 | 0 | 0.0 | 0.0 | 0.00 | 0.00 | 0.00 | |||
| 20260901082457 | 62 | 318 | 2.0 | 4.0 | 0.00 | 0.00 | 0.00 | 70 | 1008.0 |
| 20260901082442 | 0 | 0.0 | 0.0 | 0.00 | 0.00 | 0.00 | |||
| 20260901081957 | 62 | 321 | 2.0 | 5.0 | 0.00 | 0.00 | 0.00 | 70 | 1008.1 |
| 20260901081457 | 62 | 301 | 2.0 | 3.0 | 0.00 | 0.00 | 0.00 | 70 | 1008.1 |
| 20260901081441 | 0 | 0.0 | 0.0 | 0.00 | 0.00 | 0.00 | |||
| 20260901080958 | 62 | 318 | 3.0 | 6.0 | 0.00 | 0.00 | 0.00 | 70 | 1008.0 |
| 20260901080940 | 0 | 0.0 | 0.0 | 0.00 | 0.00 | 0.00 | |||
| 20260901080458 | 61 | 325 | 4.0 | 6.0 | 0.00 | 0.00 | 0.00 | 70 | 1008.0 |
| 20260901080439 | 0 | 0.0 | 0.0 | 0.00 | 0.00 | 0.00 | |||
| 20260901075959 | 61 | 313 | 2.0 | 3.0 | 0.00 | 0.00 | 0.00 | 69 | 1008.0 |
| 20260901075939 | 0 | 0.0 | 0.0 | 0.00 | 0.00 | 0.00 | |||
| 20260901075457 | 61 | 316 | 1.0 | 3.0 | 0.00 | 0.00 | 0.00 | 69 | 1008.1 |
| 20260901074958 | 61 | 340 | 2.0 | 5.0 | 0.00 | 0.00 | 0.00 | 68 | 1008.0 |
| 20260901074939 | 0 | 0.0 | 0.0 | 0.00 | 0.00 | 0.00 | |||
| 20260901074458 | 61 | 342 | 1.0 | 3.0 | 0.00 | 0.00 | 0.00 | 68 | 1008.0 |
| 20260901074439 | 0 | 0.0 | 0.0 | 0.00 | 0.00 | 0.00 | |||
| 20260901073959 | 61 | 321 | 1.0 | 2.0 | 0.00 | 0.00 | 0.00 | 67 | 1008.0 |
| 20260901073939 | 0 | 0.0 | 0.0 | 0.00 | 0.00 | 0.00 | |||
| 20260901073457 | 61 | 335 | 2.0 | 4.0 | 0.00 | 0.00 | 0.00 | 68 | 1008.0 |
| 20260901073439 | 0 | 0.0 | 0.0 | 0.00 | 0.00 | 0.00 | |||
| 20260901072958 | 61 | 335 | 1.0 | 2.0 | 0.00 | 0.00 | 0.00 | 68 | 1008.0 |
| 20260901072939 | 0 | 0.0 | 0.0 | 0.00 | 0.00 | 0.00 | |||
| 20260901072459 | 61 | 308 | 2.0 | 4.0 | 0.00 | 0.00 | 0.00 | 68 | 1008.0 |
| 20260901072439 | 0 | 0.0 | 0.0 | 0.00 | 0.00 | 0.00 | |||
| 20260901071958 | 62 | 5 | 1.0 | 2.0 | 0.00 | 0.00 | 0.00 | 67 | 1008.1 |
| 20260901071939 | 0 | 0.0 | 0.0 | 0.00 | 0.00 | 0.00 | |||
| 20260901071457 | 62 | 312 | 0.0 | 2.0 | 0.00 | 0.00 | 0.00 | 67 | 1008.0 |
| 20260901071439 | 0 | 0.0 | 0.0 | 0.00 | 0.00 | 0.00 | |||
| 20260901070957 | 62 | 321 | 1.0 | 3.0 | 0.00 | 0.00 | 0.00 | 67 | 1008.0 |
| 20260901070458 | 62 | 333 | 1.0 | 2.0 | 0.00 | 0.00 | 0.00 | 67 | 1008.0 |
| 20260901070437 | 0 | 0.0 | 0.0 | 0.00 | 0.00 | 0.00 | |||
| 20260901065958 | 61 | 323 | 2.0 | 3.0 | 0.00 | 0.00 | 0.00 | 67 | 1008.1 |
| 20260901065936 | 0 | 0.0 | 0.0 | 0.00 | 0.00 | 0.00 | |||
| 20260901065459 | 61 | 347 | 1.0 | 3.0 | 0.00 | 0.00 | 0.00 | 67 | 1008.2 |
| 20260901064957 | 62 | 307 | 1.0 | 4.0 | 0.00 | 0.00 | 0.00 | 66 | 1008.3 |
| 20260901064458 | 62 | 45 | 1.0 | 2.0 | 0.00 | 0.00 | 0.00 | 65 | 1008.3 |
| 20260901064437 | 0 | 0.0 | 0.0 | 0.00 | 0.00 | 0.00 | |||
| 20260901063959 | 62 | 299 | 2.0 | 5.0 | 0.00 | 0.00 | 0.00 | 65 | 1008.2 |
| 20260901063457 | 62 | 312 | 0.0 | 2.0 | 0.00 | 0.00 | 0.00 | 64 | 1008.3 |
| 20260901062957 | 62 | 332 | 2.0 | 3.0 | 0.00 | 0.00 | 0.00 | 63 | 1008.4 |
| 20260901062937 | 0 | 0.0 | 0.0 | 0.00 | 0.00 | 0.00 | |||
| 20260901062458 | 63 | 312 | 2.0 | 4.0 | 0.00 | 0.00 | 0.00 | 61 | 1008.3 |
| 20260901062438 | 0 | 0.0 | 0.0 | 0.00 | 0.00 | 0.00 | |||
| 20260901061958 | 63 | 302 | 3.0 | 4.0 | 0.00 | 0.00 | 0.00 | 58 | 1008.2 |
| 20260901061937 | 0 | 0.0 | 0.0 | 0.00 | 0.00 | 0.00 | |||
| 20260901061457 | 63 | 335 | 4.0 | 7.0 | 0.00 | 0.00 | 0.00 | 58 | 1008.1 |
| 20260901061438 | 0 | 0.0 | 0.0 | 0.00 | 0.00 | 0.00 | |||
| 20260901060957 | 64 | 320 | 2.0 | 5.0 | 0.00 | 0.00 | 0.00 | 58 | 1008.3 |
| 20260901060934 | 0 | 0.0 | 0.0 | 0.00 | 0.00 | 0.00 | |||
| 20260901060457 | 64 | 320 | 2.0 | 4.0 | 0.00 | 0.00 | 0.00 | 57 | 1008.3 |
| 20260901060435 | 0 | 0.0 | 0.0 | 0.00 | 0.00 | 0.00 | |||
| 20260901055957 | 64 | 330 | 4.0 | 6.0 | 0.00 | 0.00 | 0.00 | 56 | 1008.2 |
| 20260901055934 | 0 | 0.0 | 0.0 | 0.00 | 0.00 | 0.00 | |||
| 20260901055457 | 64 | 324 | 4.0 | 7.0 | 0.00 | 0.00 | 0.00 | 57 | 1008.2 |
| 20260901055433 | 0 | 0.0 | 0.0 | 0.00 | 0.00 | 0.00 | |||
| 20260901054958 | 63 | 338 | 2.0 | 4.0 | 0.00 | 0.00 | 0.00 | 57 | 1008.3 |
| 20260901054932 | 0 | 0.0 | 0.0 | 0.00 | 0.00 | 0.00 | |||
| 20260901054457 | 63 | 326 | 4.0 | 6.0 | 0.00 | 0.00 | 0.00 | 57 | 1008.4 |
| 20260901054433 | 0 | 0.0 | 0.0 | 0.00 | 0.00 | 0.00 | |||
| 20260901053958 | 63 | 324 | 2.0 | 3.0 | 0.00 | 0.00 | 0.00 | 58 | 1008.3 |
| 20260901053933 | 0 | 0.0 | 0.0 | 0.00 | 0.00 | 0.00 | |||
| 20260901053457 | 63 | 328 | 4.0 | 7.0 | 0.00 | 0.00 | 0.00 | 58 | 1008.3 |
| 20260901053432 | 0 | 0.0 | 0.0 | 0.00 | 0.00 | 0.00 | |||
| 20260901052958 | 63 | 332 | 3.0 | 5.0 | 0.00 | 0.00 | 0.00 | 59 | 1008.3 |
| 20260901052933 | 0 | 0.0 | 0.0 | 0.00 | 0.00 | 0.00 | |||
| 20260901052457 | 63 | 332 | 3.0 | 6.0 | 0.00 | 0.00 | 0.00 | 59 | 1008.3 |
| 20260901052433 | 0 | 0.0 | 0.0 | 0.00 | 0.00 | 0.00 | |||
| 20260901051957 | 63 | 336 | 4.0 | 6.0 | 0.00 | 0.00 | 0.00 | 59 | 1008.3 |
| 20260901051933 | 0 | 0.0 | 0.0 | 0.00 | 0.00 | 0.00 | |||
| 20260901051457 | 63 | 333 | 3.0 | 5.0 | 0.00 | 0.00 | 0.00 | 59 | 1008.3 |
| 20260901051432 | 0 | 0.0 | 0.0 | 0.00 | 0.00 | 0.00 | |||
| 20260901050958 | 63 | 326 | 4.0 | 7.0 | 0.00 | 0.00 | 0.00 | 59 | 1008.3 |
| 20260901050934 | 0 | 0.0 | 0.0 | 0.00 | 0.00 | 0.00 | |||
| 20260901050458 | 63 | 334 | 3.0 | 5.0 | 0.00 | 0.00 | 0.00 | 60 | 1008.3 |
| 20260901050433 | 0 | 0.0 | 0.0 | 0.00 | 0.00 | 0.00 | |||
| 20260901045958 | 63 | 326 | 4.0 | 6.0 | 0.00 | 0.00 | 0.00 | 60 | 1008.3 |
| 20260901045933 | 0 | 0.0 | 0.0 | 0.00 | 0.00 | 0.00 | |||
| 20260901045458 | 63 | 339 | 5.0 | 7.0 | 0.00 | 0.00 | 0.00 | 61 | 1008.3 |
| 20260901045433 | 0 | 0.0 | 0.0 | 0.00 | 0.00 | 0.00 | |||
| 20260901044957 | 63 | 333 | 4.0 | 5.0 | 0.00 | 0.00 | 0.00 | 61 | 1008.3 |
| 20260901044457 | 63 | 328 | 5.0 | 7.0 | 0.00 | 0.00 | 0.00 | 60 | 1008.2 |
| 20260901044430 | 0 | 0.0 | 0.0 | 0.00 | 0.00 | 0.00 | |||
| 20260901043957 | 63 | 332 | 5.0 | 9.0 | 0.00 | 0.00 | 0.00 | 61 | 1008.2 |
| 20260901043930 | 0 | 0.0 | 0.0 | 0.00 | 0.00 | 0.00 | |||
| 20260901043457 | 63 | 331 | 5.0 | 9.0 | 0.00 | 0.00 | 0.00 | 60 | 1008.2 |
| 20260901043430 | 0 | 0.0 | 0.0 | 0.00 | 0.00 | 0.00 | |||
| 20260901042958 | 63 | 323 | 4.0 | 7.0 | 0.00 | 0.00 | 0.00 | 61 | 1008.3 |
| 20260901042930 | 0 | 0.0 | 0.0 | 0.00 | 0.00 | 0.00 | |||
| 20260901042458 | 63 | 339 | 5.0 | 8.0 | 0.00 | 0.00 | 0.00 | 61 | 1008.2 |
| 20260901042430 | 0 | 0.0 | 0.0 | 0.00 | 0.00 | 0.00 | |||
| 20260901041958 | 63 | 328 | 6.0 | 9.0 | 0.00 | 0.00 | 0.00 | 61 | 1008.1 |
| 20260901041927 | 0 | 0.0 | 0.0 | 0.00 | 0.00 | 0.00 | |||
| 20260901041457 | 63 | 330 | 6.0 | 8.0 | 0.00 | 0.00 | 0.00 | 61 | 1008.2 |
| 20260901041428 | 0 | 0.0 | 0.0 | 0.00 | 0.00 | 0.00 | |||
| 20260901040957 | 63 | 333 | 4.0 | 7.0 | 0.00 | 0.00 | 0.00 | 61 | 1008.3 |
| 20260901040927 | 0 | 0.0 | 0.0 | 0.00 | 0.00 | 0.00 | |||
| 20260901040458 | 63 | 332 | 4.0 | 6.0 | 0.00 | 0.00 | 0.00 | 61 | 1008.3 |
| 20260901040428 | 0 | 0.0 | 0.0 | 0.00 | 0.00 | 0.00 | |||
| 20260901035957 | 63 | 317 | 4.0 | 7.0 | 0.00 | 0.00 | 0.00 | 61 | 1008.2 |
| 20260901035928 | 0 | 0.0 | 0.0 | 0.00 | 0.00 | 0.00 | |||
| 20260901035458 | 62 | 334 | 4.0 | 8.0 | 0.00 | 0.00 | 0.00 | 60 | 1008.2 |
| 20260901035427 | 0 | 0.0 | 0.0 | 0.00 | 0.00 | 0.00 | |||
| 20260901034958 | 62 | 333 | 4.0 | 7.0 | 0.00 | 0.00 | 0.00 | 61 | 1008.3 |
| 20260901034928 | 0 | 0.0 | 0.0 | 0.00 | 0.00 | 0.00 | |||
| 20260901034458 | 62 | 332 | 6.0 | 8.0 | 0.00 | 0.00 | 0.00 | 61 | 1008.3 |
| 20260901034428 | 0 | 0.0 | 0.0 | 0.00 | 0.00 | 0.00 | |||
| 20260901033957 | 62 | 321 | 5.0 | 7.0 | 0.00 | 0.00 | 0.00 | 61 | 1008.2 |
| 20260901033929 | 0 | 0.0 | 0.0 | 0.00 | 0.00 | 0.00 | |||
| 20260901033457 | 62 | 322 | 5.0 | 7.0 | 0.00 | 0.00 | 0.00 | 61 | 1008.2 |
| 20260901033428 | 0 | 0.0 | 0.0 | 0.00 | 0.00 | 0.00 | |||
| 20260901032959 | 62 | 326 | 5.0 | 9.0 | 0.00 | 0.00 | 0.00 | 61 | 1008.2 |
| 20260901032929 | 0 | 0.0 | 0.0 | 0.00 | 0.00 | 0.00 | |||
| 20260901032458 | 62 | 323 | 7.0 | 10.0 | 0.00 | 0.00 | 0.00 | 61 | 1008.2 |
| 20260901032429 | 0 | 0.0 | 0.0 | 0.00 | 0.00 | 0.00 | |||
| 20260901031958 | 62 | 330 | 7.0 | 11.0 | 0.00 | 0.00 | 0.00 | 61 | 1008.2 |
| 20260901031928 | 0 | 0.0 | 0.0 | 0.00 | 0.00 | 0.00 | |||
| 20260901031459 | 62 | 321 | 5.0 | 8.0 | 0.00 | 0.00 | 0.00 | 62 | 1008.2 |
| 20260901031429 | 0 | 0.0 | 0.0 | 0.00 | 0.00 | 0.00 | |||
| 20260901030958 | 62 | 325 | 7.0 | 9.0 | 0.00 | 0.00 | 0.00 | 63 | 1008.2 |
| 20260901030925 | 0 | 0.0 | 0.0 | 0.00 | 0.00 | 0.00 | |||
| 20260901030457 | 62 | 332 | 5.0 | 9.0 | 0.00 | 0.00 | 0.00 | 62 | 1008.2 |
| 20260901030426 | 0 | 0.0 | 0.0 | 0.00 | 0.00 | 0.00 | |||
| 20260901025957 | 62 | 330 | 5.0 | 9.0 | 0.00 | 0.00 | 0.00 | 62 | 1008.2 |
| 20260901025459 | 62 | 322 | 5.0 | 9.0 | 0.00 | 0.00 | 0.00 | 63 | 1008.2 |
| 20260901024959 | 62 | 309 | 4.0 | 7.0 | 0.00 | 0.00 | 0.00 | 64 | 1008.3 |
| 20260901024459 | 61 | 324 | 5.0 | 8.0 | 0.00 | 0.00 | 0.00 | 66 | 1008.3 |
| 20260901023957 | 62 | 321 | 5.0 | 9.0 | 0.00 | 0.00 | 0.00 | 68 | 1008.3 |
| 20260901023926 | 0 | 0.0 | 0.0 | 0.00 | 0.00 | 0.00 | |||
| 20260901023458 | 62 | 318 | 5.0 | 8.0 | 0.00 | 0.00 | 0.00 | 69 | 1008.3 |
| 20260901023426 | 0 | 0.0 | 0.0 | 0.00 | 0.00 | 0.00 | |||
| 20260901022957 | 62 | 316 | 4.0 | 5.0 | 0.00 | 0.00 | 0.00 | 69 | 1008.4 |
| 20260901022927 | 0 | 0.0 | 0.0 | 0.00 | 0.00 | 0.00 | |||
| 20260901022458 | 63 | 308 | 6.0 | 8.0 | 0.00 | 0.00 | 0.00 | 68 | 1008.4 |
| 20260901022426 | 0 | 0.0 | 0.0 | 0.00 | 0.00 | 0.00 | |||
| 20260901021959 | 63 | 327 | 4.0 | 7.0 | 0.00 | 0.00 | 0.00 | 67 | 1008.4 |
| 20260901021926 | 0 | 0.0 | 0.0 | 0.00 | 0.00 | 0.00 | |||
| 20260901021458 | 64 | 316 | 4.0 | 9.0 | 0.00 | 0.00 | 0.00 | 65 | 1008.4 |
| 20260901021424 | 0 | 0.0 | 0.0 | 0.00 | 0.00 | 0.00 | |||
| 20260901020958 | 63 | 306 | 4.0 | 6.0 | 0.00 | 0.00 | 0.00 | 65 | 1008.4 |
| 20260901020920 | 0 | 0.0 | 0.0 | 0.00 | 0.00 | 0.00 | |||
| 20260901020459 | 63 | 323 | 5.0 | 7.0 | 0.00 | 0.00 | 0.00 | 66 | 1008.4 |
| 20260901020421 | 0 | 0.0 | 0.0 | 0.00 | 0.00 | 0.00 | |||
| 20260901020006 | 63 | 313 | 6.0 | 8.0 | 0.00 | 0.00 | 0.00 | 67 | 1008.4 |
| 20260901015921 | 0 | 0.0 | 0.0 | 0.00 | 0.00 | 0.00 | |||
| 20260901015458 | 63 | 318 | 4.0 | 7.0 | 0.00 | 0.00 | 0.00 | 67 | 1008.6 |
| 20260901015422 | 0 | 0.0 | 0.0 | 0.00 | 0.00 | 0.00 | |||
| 20260901014957 | 63 | 315 | 4.0 | 6.0 | 0.00 | 0.00 | 0.00 | 67 | 1008.6 |
| 20260901014922 | 0 | 0.0 | 0.0 | 0.00 | 0.00 | 0.00 | |||
| 20260901014457 | 63 | 305 | 6.0 | 7.0 | 0.00 | 0.00 | 0.00 | 67 | 1008.6 |
| 20260901014418 | 0 | 0.0 | 0.0 | 0.00 | 0.00 | 0.00 | |||
| 20260901013957 | 63 | 311 | 4.0 | 7.0 | 0.00 | 0.00 | 0.00 | 66 | 1008.7 |
| 20260901013919 | 0 | 0.0 | 0.0 | 0.00 | 0.00 | 0.00 | |||
| 20260901013458 | 63 | 309 | 5.0 | 6.0 | 0.00 | 0.00 | 0.00 | 64 | 1008.7 |
| 20260901013419 | 0 | 0.0 | 0.0 | 0.00 | 0.00 | 0.00 | |||
| 20260901012957 | 63 | 322 | 4.0 | 5.0 | 0.00 | 0.00 | 0.00 | 64 | 1008.8 |
| 20260901012918 | 0 | 0.0 | 0.0 | 0.00 | 0.00 | 0.00 | |||
| 20260901012457 | 63 | 314 | 4.0 | 6.0 | 0.00 | 0.00 | 0.00 | 64 | 1008.8 |
| 20260901012416 | 0 | 0.0 | 0.0 | 0.00 | 0.00 | 0.00 | |||
| 20260901011957 | 63 | 321 | 4.0 | 6.0 | 0.00 | 0.00 | 0.00 | 64 | 1008.9 |
| 20260901011916 | 0 | 0.0 | 0.0 | 0.00 | 0.00 | 0.00 | |||
| 20260901011458 | 64 | 316 | 5.0 | 7.0 | 0.00 | 0.00 | 0.00 | 64 | 1008.9 |
| 20260901011416 | 0 | 0.0 | 0.0 | 0.00 | 0.00 | 0.00 | |||
| 20260901010958 | 64 | 300 | 5.0 | 9.0 | 0.00 | 0.00 | 0.00 | 64 | 1008.9 |
| 20260901010913 | 0 | 0.0 | 0.0 | 0.00 | 0.00 | 0.00 | |||
| 20260901010457 | 64 | 309 | 3.0 | 8.0 | 0.00 | 0.00 | 0.00 | 64 | 1008.9 |
| 20260901010413 | 0 | 0.0 | 0.0 | 0.00 | 0.00 | 0.00 | |||
| 20260901005957 | 64 | 317 | 4.0 | 6.0 | 0.00 | 0.00 | 0.00 | 64 | 1008.9 |
| 20260901005912 | 0 | 0.0 | 0.0 | 0.00 | 0.00 | 0.00 | |||
| 20260901005500 | 64 | 312 | 5.0 | 7.0 | 0.00 | 0.00 | 0.00 | 64 | 1009.0 |
| 20260901004959 | 64 | 326 | 4.0 | 6.0 | 0.00 | 0.00 | 0.00 | 63 | 1009.0 |
| 20260901004913 | 0 | 0.0 | 0.0 | 0.00 | 0.00 | 0.00 | |||
| 20260901004458 | 64 | 299 | 4.0 | 6.0 | 0.00 | 0.00 | 0.00 | 63 | 1009.0 |